LPPR Airport Information

Runway Information
Runway 17 Length 11417 ft width 148 ft
Elevation 151 ft Threshold 984 ft Heading 169
Runway 35 Length 11417 ft Width 148 ft
Elevation 226 ft Threshold 492 ft Heading 349
Airport Frequencies
Type APP Name APP Frequency 121.1 MHZ
Type ATIS Name ATIS Frequency 124.3 MHZ
Type TWR Name TWR Frequency 118 MHZ
Airport Navaids
Type NDB Name Porto Frequency 367 KHZ
Type NDB Name Porto Frequency 327 KHZ
Type VOR-DME Name Porto Frequency 114100 KHZ
Airport Weather Information & NOTAM
ADDS - METARS form results

(2223 UTC 09 December 2018)
Data provider http://aviationweather.gov/metar/data/
 
METAR text: LPPR 092200Z VRB02KT 6000 FEW002 11/11 Q1030
Conditions at: LPPR (PORTO/PEDRAS RUB, PT) observed 2200 UTC 09 December 2018
Temperature: 11.0°C (52°F)
Dewpoint: 11.0°C (52°F) [RH = 100%]
Pressure (altimeter): 30.41 inches Hg (1030.0 mb)
Winds: variable direction winds at 2 MPH (2 knots; 1.0 m/s)
Visibility: 4 miles ( 6 km)
Ceiling: at least 12,000 feet AGL
Clouds: few clouds at 200 feet AGL
Weather: no significant weather observed at this time

METAR text: LPPR 092130Z 02004KT 350V070 9000 FEW002 12/12 Q1030
Conditions at: LPPR (PORTO/PEDRAS RUB, PT) observed 2130 UTC 09 December 2018
Temperature: 12.0°C (54°F)
Dewpoint: 12.0°C (54°F) [RH = 100%]
Pressure (altimeter): 30.41 inches Hg (1030.0 mb)
Winds: from the NNE (20 degrees) at 5 MPH (4 knots; 2.1 m/s)
Visibility: 6 miles ( 9 km)
Ceiling: at least 12,000 feet AGL
Clouds: few clouds at 200 feet AGL
Weather: no significant weather observed at this time

Forecast for: AMD
Text: TAF AMD LPPR 091934Z 0919/1018 VRB03KT 2000 BR FEW003
Forecast period: 1900 to 2100 UTC 09 December 2018
Forecast type: FROM: standard forecast or significant change
Winds: variable direction winds at 3 MPH (3 knots; 1.5 m/s)
Visibility: 1.24 miles (2.00 km)
Ceiling: at least 12,000 feet AGL
Clouds: few clouds at 300 feet AGL
Weather: BR  (mist)
Text: BECMG 0921/0924 06005KT CAVOK
Forecast period: 2100 UTC 09 December 2018 to 0100 UTC 10 December 2018
Forecast type: BECOMING: Conditions expected to become as follows by 0000 UTC 10 December 2018
Winds: from the ENE (60 degrees) at 6 MPH (5 knots; 2.6 m/s)
Visibility: 6 or more miles 10+ km)
Ceiling: unknown
Clouds: missing
Weather: NSW  (no significant weather)
Text: BECMG 1001/1003 09010KT
Forecast period: 0100 to 1800 UTC 10 December 2018
Forecast type: BECOMING: Conditions expected to become as follows by 0300 UTC 10 December 2018
Winds: from the E (90 degrees) at 12 MPH (10 knots; 5.1 m/s)
Visibility: 6 or more miles 10+ km)
Ceiling: unknown
Clouds: missing
Weather: NSW  (no significant weather)